Temperature
22 22 22 21 21 21 20 20 20 20 19 19 19 19 19 18 18 18 18 18 18 18 18 18 18 18 18 18 18 18 18 18 18 18 18 18 18 17 17 17 17 17 17
22 22 22 22 21 21 21 20 20 20 20 19 19 19 19 18 18 18 18 18 18 18 18 18 18 18 18 18 18 18 18 18 18 18 18 17 17 17 17 17 17 17 17
22 22 22 22 21 21 21 21 20 20 20 19 19 19 18 18 18 18 18 18 18 18 18 18 18 18 18 18 18 18 18 18 17 17 17 17 17 17 17 17 17 17 17
23 23 22 22 22 21 21 21 20 20 20 19 19 19 18 18 18 18 18 18 18 18 18 18 18 18 18 18 18 18 17 17 17 17 17 17 17 17 17 17 17 17 17
23 23 23 22 22 22 21 21 20 20 20 19 19 19 18 19 18 18 18 18 18 18 18 18 18 18 18 18 18 17 17 17 17 17 17 17 17 17 17 16 17 17 16
23 23 23 22 22 21 21 21 20 20 20 19 19 19 19 19 18 18 18 18 18 18 18 18 18 18 17 17 17 17 17 17 17 17 17 17 17 17 17 16 16 16 16
23 23 23 22 22 21 21 21 20 20 20 19 19 19 19 18 18 18 18 18 18 18 18 18 17 17 17 17 17 17 17 17 17 17 17 17 17 16 16 16 16 16 16
23 23 23 22 22 22 21 21 20 20 20 19 19 19 18 18 18 18 18 18 18 18 18 18 17 17 17 17 17 17 17 17 17 17 17 17 16 16 16 16 16 16 15
23 23 23 22 22 22 21 21 20 20 20 19 19 19 18 18 18 18 18 18 18 18 17 17 17 17 17 17 17 17 17 17 17 17 17 16 16 16 16 16 16 16 15
23 23 22 22 22 21 21 21 20 20 20 19 19 19 18 18 18 18 18 18 17 17 17 17 17 17 17 17 17 17 17 16 16 16 16 16 16 16 16 16 15 15 15
23 23 22 22 22 21 21 21 20 20 20 19 19 19 18 18 18 18 18 18 17 17 17 17 17 17 17 17 17 17 16 16 16 16 16 16 16 16 16 15 15 15 15
23 23 22 22 22 21 21 21 21 20 20 20 19 19 18 18 18 18 17 17 17 17 17 17 17 17 17 17 16 16 16 16 16 16 16 16 16 15 15 15 15 15 15
22 22 22 22 22 22 21 21 20 20 20 19 19 18 18 18 18 17 17 17 17 17 17 17 17 17 16 16 16 16 16 16 16 15 15 15 15 15 15 15 15 15 14
22 22 22 22 22 21 21 21 20 20 20 19 19 19 18 18 18 17 17 17 17 17 17 16 16 16 16 16 16 16 16 16 15 15 15 15 15 15 15 14 14 14 14
22 22 22 21 21 21 21 21 20 20 20 19 19 19 18 18 17 17 17 17 17 17 17 16 16 16 16 16 15 15 15 15 15 15 15 14 14 14 14 14 14 14 14
22 22 22 21 21 21 21 21 20 20 19 19 19 18 18 17 17 17 17 17 16 16 16 16 16 16 16 15 15 15 15 15 15 14 14 14 14 14 14 14 14 13 13
22 22 22 22 22 21 21 21 20 20 19 19 19 18 18 17 17 17 17 16 16 16 16 16 16 16 16 15 15 15 15 15 14 14 14 14 13 13 13 13 13 13 13
22 22 22 22 22 21 21 20 20 19 19 18 18 18 17 17 17 17 16 16 16 16 16 16 15 15 15 15 15 14 14 14 14 14 14 13 13 13 13 13 13 13 12
22 22 22 22 22 21 20 20 19 19 19 18 18 17 17 17 17 16 16 16 16 15 15 15 15 15 15 15 14 14 14 14 13 13 13 13 13 13 13 13 13 12 12
21 21 21 21 21 20 20 19 19 19 18 18 17 17 17 16 16 16 16 16 15 15 15 15 15 15 14 14 14 14 14 13 13 13 13 12 12 12 12 12 12 12 12
21 21 21 21 20 20 19 19 19 18 18 18 17 17 16 16 16 16 16 15 15 15 14 14 14 14 14 14 14 13 13 13 13 13 12 12 12 12 12 12 12 11 11
20 20 20 20 19 19 19 19 18 18 18 17 17 16 16 16 16 15 15 15 15 14 14 14 14 14 14 13 13 13 13 13 12 12 12 12 12 11 11 11 11 11 11
20 20 20 19 19 18 18 18 18 18 17 17 17 16 16 16 15 15 15 14 14 14 14 14 14 14 13 13 13 13 13 12 12 12 12 12 11 11 11 11 11 11 11
19 19 19 19 18 18 18 18 18 17 17 16 16 16 16 16 15 15 15 14 14 14 14 14 13 13 13 13 13 13 12 12 12 12 11 11 11 11 11 11 11 10 10
19 18 18 18 18 18 18 17 17 17 16 16 16 16 15 15 15 15 14 14 14 14 14 14 14 13 13 13 13 12 12 12 12 11 11 11 11 11 11 11 10 10 10
18 18 18 18 17 17 17 17 17 16 16 16 16 15 15 15 15 14 14 14 14 14 13 13 13 13 13 13 12 12 12 11 11 11 11 11 11 11 10 10 10 10 10
Wind_Speed
9 10 10 10 8 7 7 6 6 4 3 2 2 2 1 1 1 2 3 4 4 5 4 2 2 2 2 3 2 2 2 1 1 1 1 2 1 1 2 2 2 3 5
9 10 9 9 9 8 7 6 6 5 4 3 2 2 2 1 1 1 2 2 3 4 4 3 3 2 2 2 2 2 1 1 1 2 1 1 3 2 1 1 2 3 3
13 12 10 9 9 8 8 7 6 6 5 4 2 2 2 2 1 0 1 1 2 3 3 4 4 3 3 2 2 3 3 2 1 2 3 3 3 1 2 1 1 1 2
12 11 11 10 10 9 8 7 6 5 4 4 3 4 3 2 3 2 2 1 1 2 2 3 3 3 3 3 3 3 3 3 2 1 2 2 3 2 1 2 1 1 2
14 13 12 12 10 9 8 7 6 5 4 4 4 4 3 2 2 1 1 1 1 1 2 2 2 3 3 3 3 2 3 3 3 3 2 1 1 2 3 2 2 1 1
13 11 10 10 8 8 8 7 6 5 4 4 4 5 5 4 3 2 2 1 1 1 1 1 1 2 2 3 3 3 3 3 3 3 2 2 2 2 3 3 2 2 2
11 11 11 11 10 9 8 7 7 5 4 4 4 4 5 4 4 3 3 2 1 1 1 1 1 2 2 3 2 2 2 3 3 3 2 2 2 2 3 3 2 2 1
10 11 11 11 10 10 9 8 7 5 4 4 3 3 3 3 3 3 3 3 2 2 2 1 1 1 1 2 2 1 2 1 1 2 2 2 2 2 3 3 3 1 1
10 9 9 9 9 9 9 9 8 6 5 4 3 2 2 2 3 3 2 1 1 1 1 1 1 1 1 2 2 1 1 1 1 1 1 1 1 1 2 2 3 3 2
9 9 9 9 9 9 8 8 8 7 5 4 3 3 2 2 3 2 2 2 1 1 2 1 2 2 1 2 2 1 1 1 1 1 1 0 0 0 0 1 1 2 3
9 10 9 9 9 9 9 8 8 6 5 4 3 3 2 2 2 2 2 2 2 2 2 2 2 2 2 2 2 1 1 2 1 1 2 1 0 1 1 0 1 1 2
8 9 9 9 9 9 9 8 7 6 6 6 5 4 3 3 2 2 2 2 2 2 2 2 2 2 2 2 2 2 1 2 2 1 2 2 1 2 1 1 1 0 1
7 7 7 9 9 9 9 8 7 7 6 5 5 4 3 3 3 3 3 3 2 2 1 2 2 2 2 1 1 2 2 2 2 2 2 2 2 2 2 2 1 1 1
10 9 8 7 8 9 9 8 7 7 6 5 5 4 4 4 3 3 3 3 3 2 2 2 2 2 2 1 1 2 2 2 2 2 2 2 2 2 2 2 2 2 2
9 9 9 8 7 8 8 8 6 6 6 6 5 4 3 3 3 2 2 2 3 3 2 3 2 2 2 1 1 2 2 2 2 2 2 3 4 4 3 2 2 2 2
7 8 9 9 9 9 9 8 7 7 6 6 5 4 4 3 3 2 3 3 3 2 3 2 2 2 1 2 3 3 3 2 2 2 2 3 4 4 4 4 3 3 3
6 8 9 9 10 9 10 9 8 7 6 5 4 4 4 4 3 3 3 2 2 2 3 2 3 2 2 3 3 4 3 3 2 2 2 2 2 3 2 3 4 3 3
7 7 7 7 7 7 8 8 8 7 6 5 5 4 4 4 3 3 3 2 2 3 2 3 3 2 2 3 4 5 4 3 2 2 3 3 2 2 2 2 3 3 2
6 6 6 6 6 7 8 9 8 7 6 5 5 5 5 4 3 3 2 2 2 2 2 3 3 3 1 3 4 5 3 3 2 1 2 2 2 2 3 3 3 3 3
4 4 4 5 6 6 7 8 7 7 7 7 6 5 5 5 4 3 2 2 2 2 3 3 3 3 2 2 4 5 3 3 2 1 1 2 2 2 3 3 2 1 2
5 5 5 5 5 6 8 7 6 7 7 7 6 5 5 5 5 4 3 2 2 3 3 3 2 2 2 1 3 5 3 3 2 1 0 0 1 2 2 2 2 2 1
4 5 5 4 4 6 7 7 6 6 5 6 6 6 5 5 4 4 3 2 3 3 2 3 2 1 0 1 2 4 3 3 3 1 1 1 1 2 2 2 1 2 3
4 4 5 4 2 4 6 6 5 4 5 5 5 5 5 4 4 4 4 3 3 3 3 3 3 2 1 0 1 3 3 4 2 1 1 1 3 3 2 2 3 3 2
3 4 4 4 3 3 3 5 4 4 5 5 5 5 5 4 3 3 4 4 4 3 3 4 4 3 2 2 1 1 1 2 2 1 1 2 3 3 2 2 2 1 1
4 4 4 5 4 4 4 4 4 5 5 5 5 5 5 5 4 2 2 3 4 5 5 5 5 5 4 5 5 4 2 2 2 2 2 2 2 2 2 1 1 1 1
4 4 4 4 5 5 4 3 4 5 5 5 5 5 5 5 4 4 1 2 1 2 5 6 6 4 5 6 6 6 5 5 5 4 2 1 1 1 1 1 0 1 0
Wind_Direction
173 167 162 160 155 156 155 155 153 162 146 132 134 138 159 166 155 187 185 186 180 173 168 178 183 180 178 189 182 169 175 213 158 96 2 345 322 225 224 204 179 187 195
165 166 166 165 166 168 166 162 161 165 165 168 170 168 160 169 179 190 173 185 183 182 180 170 175 181 175 176 180 157 158 225 154 138 114 351 342 335 268 196 185 194 185
175 174 172 172 170 173 174 174 171 170 172 167 138 98 73 55 59 215 217 216 190 187 184 181 176 175 164 178 193 177 165 195 228 162 149 160 220 282 326 293 195 184 190
178 175 173 172 175 177 173 166 167 168 171 160 150 149 151 170 206 200 200 224 199 181 186 187 181 183 177 190 209 189 178 169 203 235 208 177 166 172 265 315 291 204 191
178 178 177 174 173 171 168 165 162 166 165 161 165 155 158 183 191 176 174 215 258 218 203 194 178 185 187 196 201 185 182 183 192 199 203 202 188 171 183 248 281 297 252
177 175 170 161 164 163 161 160 158 166 166 162 172 169 171 173 160 167 177 216 250 265 247 190 168 184 191 197 205 197 194 201 200 197 189 181 189 203 185 210 236 250 262
168 166 163 164 165 164 165 163 163 171 173 171 178 177 174 168 170 171 181 189 207 233 246 212 192 196 206 203 198 197 211 206 204 209 213 208 215 200 186 181 208 225 260
162 168 173 170 168 168 167 164 165 168 170 170 175 170 166 163 162 164 177 187 201 214 217 187 187 193 186 180 170 192 222 200 208 223 214 208 226 206 191 180 176 205 271
164 166 169 165 165 165 166 165 166 169 170 165 147 133 152 163 165 165 163 160 178 168 150 155 154 159 148 140 137 144 220 170 186 209 193 192 227 214 205 181 172 172 211
158 158 163 166 168 167 164 161 161 164 165 163 161 156 150 167 169 153 145 142 143 108 112 100 117 116 110 117 118 118 107 105 92 102 83 56 269 299 89 158 166 169 181
161 163 171 174 166 160 158 160 163 160 160 161 157 141 146 140 141 142 145 140 123 121 123 123 117 114 111 108 100 96 98 97 71 65 74 34 75 50 26 88 116 150 165
165 166 172 170 162 161 161 162 165 167 168 164 154 151 153 146 152 157 163 147 137 137 141 136 123 120 111 110 116 110 88 100 90 78 75 43 59 59 53 71 67 107 183
161 161 161 166 163 164 162 163 166 168 165 158 152 154 163 164 165 171 166 154 145 137 119 122 122 112 103 94 96 107 94 96 100 93 95 81 76 56 43 58 58 45 68
168 166 162 166 163 160 159 160 164 162 160 156 157 159 170 174 164 161 151 149 144 132 117 110 110 105 98 86 71 80 91 91 88 85 89 88 95 91 75 71 65 80 80
163 168 169 167 166 163 162 162 161 158 158 155 157 165 166 157 141 137 134 128 126 127 123 109 95 87 87 78 104 112 107 105 96 79 75 80 85 84 78 87 90 93 93
159 166 165 164 171 173 172 166 164 163 158 157 164 164 153 142 139 145 136 123 115 104 98 101 99 81 68 74 107 117 113 107 106 95 65 67 69 66 62 71 82 103 117
161 163 166 174 182 182 173 169 167 158 152 153 152 155 152 149 156 153 130 136 145 131 120 112 103 96 68 93 113 119 118 112 120 120 102 76 64 61 61 50 47 55 71
153 162 166 178 185 175 164 158 153 151 154 156 158 156 152 156 155 147 148 155 156 151 143 129 126 117 83 98 114 114 103 98 103 111 119 110 75 55 72 78 57 40 23
163 161 165 168 164 160 159 150 150 152 153 168 174 173 165 158 149 152 160 166 149 142 147 146 142 128 94 93 114 116 104 98 89 87 98 110 99 48 85 91 75 43 360
140 141 142 134 139 152 148 147 154 159 170 176 175 170 166 161 159 163 168 172 160 152 146 143 143 138 134 107 116 122 118 110 97 64 63 94 101 71 94 106 104 69 323
143 133 126 130 145 146 140 149 158 175 180 170 164 167 168 165 163 159 168 160 155 137 143 147 144 143 153 135 115 125 134 146 142 145 281 285 85 76 86 119 144 198 183
132 132 131 128 131 139 141 153 174 179 164 159 164 171 172 174 165 159 166 159 152 151 161 153 145 162 185 138 120 127 130 142 146 183 231 240 116 98 97 105 104 115 100
138 138 134 132 138 146 152 161 176 162 155 160 169 173 168 170 162 164 169 163 158 167 177 169 179 200 214 237 112 125 125 121 136 189 191 116 102 89 75 72 87 97 98
151 142 133 141 163 165 160 168 165 155 161 171 178 174 165 163 161 164 171 174 178 184 187 184 191 196 200 214 211 182 139 109 96 82 60 74 70 63 49 41 51 66 114
166 162 161 173 183 181 178 180 164 154 168 179 181 177 171 166 165 160 178 193 205 199 193 197 193 187 204 222 201 178 180 182 177 120 74 59 54 47 32 27 17 22 55
171 167 175 186 189 182 182 186 177 168 170 178 183 182 178 175 169 163 130 10 233 212 198 194 190 205 207 193 184 177 173 164 149 128 128 145 158 170 179 169 324 3 33
Height
1528 1530 1531 1533 1534 1535 1535 1536 1536 1537 1538 1538 1539 1539 1540 1540 1540 1541 1541 1541 1541 1542 1542 1542 1543 1543 1543 1544 1544 1545 1545 1545 1546 1546 1546 1546 1546 1546 1546 1546 1546 1546 1547
1527 1529 1530 1532 1533 1534 1535 1535 1536 1536 1537 1538 1538 1539 1539 1540 1540 1540 1540 1540 1540 1540 1541 1541 1541 1542 1542 1542 1543 1543 1543 1544 1544 1544 1544 1545 1546 1544 1545 1545 1544 1544 1545
1525 1527 1529 1531 1532 1533 1534 1535 1535 1536 1537 1538 1538 1538 1539 1539 1539 1539 1539 1539 1539 1539 1539 1539 1540 1540 1540 1541 1541 1541 1541 1542 1542 1543 1543 1543 1542 1543 1543 1542 1542 1542 1542
1524 1525 1527 1529 1531 1532 1534 1534 1535 1536 1537 1537 1538 1537 1537 1537 1538 1538 1538 1538 1538 1538 1538 1538 1538 1538 1538 1538 1539 1539 1539 1540 1540 1541 1541 1541 1541 1541 1540 1541 1540 1540 1540
1521 1523 1525 1527 1530 1532 1533 1534 1535 1535 1536 1536 1537 1537 1536 1536 1537 1537 1537 1537 1537 1537 1536 1536 1536 1536 1536 1536 1537 1537 1537 1537 1538 1538 1538 1538 1538 1538 1538 1537 1537 1538 1538
1519 1522 1525 1527 1529 1531 1532 1533 1534 1534 1535 1535 1535 1536 1536 1535 1536 1536 1536 1535 1535 1535 1535 1535 1534 1534 1534 1534 1534 1535 1535 1535 1535 1536 1536 1536 1536 1535 1535 1535 1534 1534 1535
1518 1521 1523 1525 1527 1529 1531 1532 1533 1533 1534 1534 1535 1535 1535 1535 1535 1535 1534 1534 1534 1533 1533 1533 1533 1533 1533 1532 1532 1532 1533 1533 1533 1533 1533 1533 1533 1533 1532 1532 1532 1532 1532
1515 1519 1522 1524 1526 1528 1529 1531 1532 1532 1533 1533 1533 1534 1534 1534 1534 1533 1533 1533 1533 1532 1532 1532 1531 1531 1531 1531 1531 1530 1530 1530 1530 1530 1530 1530 1530 1530 1529 1529 1529 1529 1529
1513 1516 1520 1523 1525 1527 1529 1530 1531 1532 1533 1533 1533 1533 1533 1533 1533 1533 1532 1532 1532 1531 1531 1530 1530 1530 1530 1529 1529 1529 1528 1528 1528 1528 1528 1528 1527 1527 1526 1526 1526 1527 1525
1511 1515 1518 1521 1524 1526 1528 1529 1530 1531 1532 1532 1532 1532 1532 1531 1531 1532 1531 1531 1531 1530 1530 1529 1529 1529 1528 1528 1528 1527 1527 1526 1526 1526 1525 1525 1525 1525 1524 1524 1524 1524 1524
1510 1513 1516 1519 1522 1524 1526 1528 1529 1530 1530 1530 1531 1531 1530 1530 1529 1530 1530 1530 1529 1529 1529 1528 1528 1527 1527 1527 1527 1526 1525 1525 1524 1524 1524 1523 1523 1522 1522 1522 1521 1521 1521
1510 1513 1515 1518 1520 1523 1524 1526 1527 1528 1529 1529 1529 1529 1530 1529 1528 1528 1528 1528 1528 1528 1527 1527 1527 1526 1526 1526 1525 1525 1524 1524 1523 1522 1522 1521 1521 1520 1520 1520 1519 1519 1519
1510 1512 1514 1516 1518 1521 1523 1524 1526 1526 1527 1528 1528 1528 1528 1528 1528 1528 1527 1527 1527 1527 1526 1526 1525 1525 1525 1525 1524 1524 1523 1522 1522 1521 1521 1520 1519 1518 1518 1518 1517 1517 1517
1508 1509 1512 1515 1517 1519 1521 1522 1524 1525 1526 1526 1527 1527 1527 1527 1527 1527 1527 1526 1526 1526 1525 1525 1524 1524 1524 1523 1523 1523 1522 1521 1520 1520 1519 1519 1518 1517 1517 1516 1515 1515 1515
1506 1508 1510 1513 1516 1517 1519 1521 1522 1523 1524 1525 1525 1525 1526 1526 1526 1526 1526 1525 1525 1524 1524 1524 1523 1523 1522 1522 1522 1521 1520 1519 1519 1518 1518 1517 1517 1516 1516 1515 1514 1513 1513
1504 1506 1508 1511 1513 1515 1516 1518 1520 1521 1522 1523 1524 1524 1524 1525 1524 1524 1524 1523 1523 1523 1523 1522 1522 1521 1521 1521 1520 1520 1519 1518 1518 1517 1516 1516 1516 1515 1515 1514 1513 1513 1512
1502 1505 1506 1508 1510 1512 1514 1516 1517 1519 1520 1521 1522 1522 1523 1523 1523 1523 1523 1522 1521 1521 1521 1521 1520 1520 1519 1519 1519 1519 1518 1517 1517 1516 1515 1515 1515 1515 1514 1514 1513 1513 1512
1500 1503 1504 1506 1508 1510 1512 1514 1516 1517 1518 1519 1520 1520 1520 1520 1521 1521 1521 1520 1520 1520 1519 1519 1519 1518 1518 1518 1518 1517 1517 1516 1516 1515 1514 1514 1514 1514 1514 1513 1512 1512 1512
1498 1500 1502 1503 1505 1508 1510 1511 1513 1513 1514 1516 1517 1518 1518 1518 1518 1519 1519 1519 1519 1518 1517 1517 1516 1516 1516 1516 1516 1516 1515 1515 1515 1514 1514 1513 1513 1513 1513 1513 1512 1512 1512
1498 1499 1500 1502 1503 1505 1508 1509 1510 1511 1512 1514 1515 1516 1516 1516 1516 1516 1517 1517 1517 1516 1516 1515 1515 1514 1514 1514 1514 1514 1514 1514 1514 1514 1513 1513 1513 1513 1513 1512 1512 1511 1511
1496 1497 1499 1500 1501 1503 1505 1507 1508 1510 1511 1512 1513 1513 1514 1514 1514 1514 1514 1514 1514 1514 1514 1514 1513 1513 1513 1513 1513 1513 1513 1513 1513 1513 1513 1513 1513 1513 1512 1512 1512 1512 1511
1495 1496 1497 1499 1501 1503 1504 1505 1506 1507 1508 1509 1510 1510 1511 1511 1511 1511 1512 1512 1512 1512 1512 1512 1512 1511 1511 1512 1511 1512 1512 1512 1512 1512 1512 1512 1512 1512 1512 1511 1511 1511 1511
1494 1496 1497 1498 1500 1501 1502 1503 1504 1505 1506 1507 1507 1507 1508 1508 1509 1509 1510 1510 1510 1510 1510 1510 1510 1510 1510 1510 1510 1510 1511 1511 1511 1511 1512 1512 1512 1511 1511 1510 1510 1510 1510
1492 1494 1495 1496 1497 1499 1500 1500 1501 1502 1504 1504 1504 1504 1505 1505 1506 1507 1507 1508 1507 1508 1508 1508 1508 1508 1507 1508 1508 1508 1509 1509 1510 1510 1510 1511 1511 1510 1510 1509 1509 1508 1508
1490 1491 1493 1494 1495 1496 1496 1497 1498 1499 1500 1501 1501 1501 1502 1502 1503 1504 1505 1505 1505 1505 1506 1506 1506 1505 1505 1505 1506 1507 1507 1508 1508 1509 1509 1509 1509 1508 1508 1508 1507 1507 1507
1486 1488 1489 1491 1491 1493 1494 1495 1496 1496 1497 1497 1498 1498 1499 1500 1500 1501 1501 1502 1502 1503 1503 1503 1503 1503 1504 1504 1504 1505 1505 1505 1506 1506 1506 1507 1507 1507 1506 1506 1506 1505 1505